Regional Weather Roundup
Issued by NWS

Home | Current Version | Previous Version | Graphics & Text | Print | Product List | Glossary On
Versions: 1 2 3 4 5 6 7 8 9 10 11 12 13 14 15 16 17 18 19 20 21 22 23 24 25 26 27 28 29 30 31 32 33 34 35 36 37 38 39 40 41 42 43 44 45 46 47 48 49 50
000
ASUS43 KMPX 190801
RWRMN
WEATHER ROUNDUP FOR MINNESOTA
NATIONAL WEATHER SERVICE TWIN CITIES/CHANHASSEN MN
200 AM CST MON FEB 19 2018


NOTE: "FAIR" INDICATES FEW OR NO CLOUDS BELOW 12,000 FEET WITH NO
SIGNIFICANT WEATHER AND/OR OBSTRUCTIONS TO VISIBILITY. N/A MEANS
CURRENT SKY AND/OR WEATHER CONDITIONS ARE NOT AVAILABLE.

MNZ060>063-068>070-190900-
   Twin Cities Metro

CITY           SKY/WX    TMP DP  RH WIND       PRES   REMARKS
TWIN CITIES    CLOUDY    27  23  85 N14       29.78R WCI  16
ST PAUL        MOCLDY    27  22  81 N8        29.80R WCI  19
CRYSTAL        CLOUDY    26  20  77 N14       29.79R WCI  14
BLAINE         CLOUDY    28  23  80 N15       29.80R WCI  17
LAKEVILLE      FAIR      25  21  86 N9        29.76S WCI  15
EDEN PRAIRIE   CLOUDY    27  21  78 N12       29.76F WCI  17
SOUTH ST PAUL  MOCLDY    27  23  83 N8        29.78R WCI  19
LAKE ELMO      FAIR      27  23  86 N8        29.79R WCI  18
$$
MNZ001>005-007-008-013>017-022>024-027-028-190900-
   Northwest Minnesota

CITY           SKY/WX    TMP DP  RH WIND       PRES   REMARKS
BEMIDJI        MOCLDY     4   0  83 N8        30.02R WCI  -9
HALLOCK        FAIR       1  -6  71 N12       30.19S WCI -15
WARROAD        FAIR       0  -6  78 NW6       30.14R WCI -12
THIEF RVR FALL FAIR       4  -4  69 N12       30.13R WCI -12
CROOKSTON      FAIR       7  -2  66 N12       30.15R WCI  -9
FOSSTON        FAIR       3  -2  78 N12       30.06S WCI -13
DETROIT LAKES  FAIR      10   5  79 N5        30.02R WCI   2
MOORHEAD       FAIR       7   1  78 N18       30.07F WCI -12
PARK RAPIDS    MOCLDY     8   2  76 N14G21    29.96R WCI  -8
MAHNOMEN       CLOUDY     5   0  79 N15       30.04S WCI -13
$$
MNZ006-009>011-018-025>026-190900-
   North Central Minnesota

CITY           SKY/WX    TMP DP  RH WIND       PRES   REMARKS
BAUDETTE       FAIR       3  -2  79 N7        30.10R WCI  -9
FLAG ISLAND    FAIR       0  -6  78 NW8       30.14R WCI -15
INTL FALLS     FAIR       4   0  83 N7        30.07R WCI  -8
WASKISH        FAIR       3   0  85 N5        30.07R WCI  -6
BIG FORK       FAIR       5   0  78 N6        30.02R WCI  -6
LONGVILLE      CLOUDY     7   3  85 N6        29.98R WCI  -3
GRAND RAPIDS   CLOUDY     6   1  80 N14       29.99R WCI -11
CRANE LAKE     FAIR      -6  -9  84 CALM      30.06R
ORR            FAIR       1  -4  78 CALM      29.98R
COOK           MOCLDY     3   0  85 CALM      29.98S
WALKER         CLOUDY     6   1  82 N8        29.99R WCI  -7
$$
MNZ012-019>021-037-190900-
   Northeast Minnesota

CITY           SKY/WX    TMP DP  RH WIND       PRES   REMARKS
DULUTH         FLURRIES  12   7  80 N10       29.90R WCI  -1
ELY            FAIR       3   0  85 CALM      29.97R
HIBBING        MOCLDY     4   0  83 N10       29.95R WCI -11
EVELETH        FAIR     N/A N/A N/A N7        29.95R
DULUTH HARBOR  CLOUDY    19  14  79 N16G22    29.96R WCI   5
TWO HARBORS    MOCLDY    16   9  73 N3        29.90R
G MARAIS ARPRT CLOUDY     5  -2  72 N15       29.87R WCI -13
$$
MNZ029>031-032-039>041-046>048-054>057-064-190900-
   West Central Minnesota

CITY           SKY/WX    TMP DP  RH WIND       PRES   REMARKS
FERGUS FALLS   CLOUDY     9   3  78 N15       29.99F WCI  -8
WHEATON        CLOUDY    10   3  72 N17G23    30.03R WCI  -7
MORRIS         CLOUDY    14   7  73 N21G30    29.93R WCI  -4
ALEXANDRIA     CLOUDY    13   7  77 N16       29.92R WCI  -3
ELBOW LAKE     MOCLDY    12   7  80 N14G21    29.98R WCI  -4
WADENA         CLOUDY     9   5  85 N13       29.95R WCI  -7
GLENWOOD       FAIR      14   9  79 N17G24    29.89R WCI  -3
APPLETON       CLOUDY    16   9  73 N23G31    29.92R WCI  -2
BENSON         CLOUDY    16   9  73 NE14G24   29.93R WCI   1
ORTONVILLE     CLOUDY    12   5  73 N28G35    29.93R WCI  -9
MADISON        CLOUDY    16  10  79 N22G32    29.92R WCI  -2
WILLMAR        MOCLDY    18  12  79 N15       29.88R WCI   3
$$
MNZ033>034-036-042>043-049>051-058-059-190900-
   Central Minnesota

CITY           SKY/WX    TMP DP  RH WIND       PRES   REMARKS
ST CLOUD       CLOUDY    19  13  77 N13G23    29.85R WCI   6
SAUK CENTRE    CLOUDY    13   8  79 N16G23    29.89R WCI  -4
PAYNESVILLE    CLOUDY    17  13  85 N9G18     29.86R WCI   5
AITKIN         CLOUDY     9   3  78 N13       29.92R WCI  -7
PINE RIVER     CLOUDY     7   3  85 N14       29.98R WCI -10
BRAINERD       CLOUDY    11   4  73 N13G22    29.92R WCI  -4
STAPLES        CLOUDY     9   3  78 N17       29.93R WCI -10
LONG PRAIRIE   CLOUDY    12   9  85 NW18      29.89R WCI  -5
LITTLE FALLS   MOCLDY    12   3  67 N9        29.91R WCI   0
LITCHFIELD     CLOUDY    21  16  79 N18G25    29.82S WCI   6
BUFFALO        CLOUDY    23  18  80 N10       29.82R WCI  12
MAPLE LAKE     CLOUDY    22  18  84 N17G24    29.83S WCI   8
HUTCHINSON     CLOUDY    24  19  81 N10G21    29.82R WCI  13
$$
MNZ037-044-045-052-053-190900-
   East Central Minnesota

CITY           SKY/WX    TMP DP  RH WIND       PRES   REMARKS
PRINCETON      CLOUDY    21  18  86 N13       29.84R WCI   9
MORA           CLOUDY    19  12  73 N7        29.88R WCI  10
CAMBRIDGE      CLOUDY    23  16  74 N13G18    29.84R WCI  11
RUSH CITY      CLOUDY    21  17  84 N12       29.85R WCI   9
MOOSE LAKE     CLOUDY    16  10  79 N10G20    29.88R WCI   3
HINCKLEY       CLOUDY    19  14  79 N12       29.88R WCI   7
CLOQUET        CLOUDY    12   7  79 N12G22    29.90R WCI  -2
MCGREGOR       CLOUDY    12   9  85 N14       29.93R WCI  -3
$$
MNZ071>073-080-081-089-090-097-098-190900-
   Southwest Minnesota

CITY           SKY/WX    TMP DP  RH WIND       PRES   REMARKS
MONTEVIDEO     LGT SNOW  16  10  79 N23G31    29.88R WCI  -2
GRANITE FALLS  CLOUDY    22  16  78 NW15G23   29.88R WCI   8
CANBY          LGT SNOW  14  10  85 NW18G29   29.90R WCI  -3
MARSHALL       CLOUDY    15  10  80 N22G29    29.86R WCI  -3
REDWOOD FALLS  CLOUDY    21  16  81 N13       29.83R WCI   9
OLIVIA         CLOUDY    21  16  79 N13G22    29.84R WCI   9
PIPESTONE      PTCLDY    14  10  85 NE15G25   29.79R WCI  -1
WINDOM         CLOUDY    21   7  53 N23       29.78R WCI   5
WORTHINGTON    CLOUDY    18  15  88 N25G33    29.73F WCI   0
JACKSON        CLOUDY    21  18  86 VRB16G22  29.75R WCI   7
TRACY          CLOUDY    17  14  88 N20G25    29.83R WCI   0
SLAYTON        CLOUDY    16  13  90 N22G28    29.79R WCI  -2
$$
MNZ065>067-074>077-082>085-091>093-190900-
   South Central Minnesota

CITY           SKY/WX    TMP DP  RH WIND       PRES   REMARKS
MANKATO        FAIR      25  22  88 N15       29.75F WCI  13
NEW ULM        CLOUDY    25  19  80 N10G18    29.78R WCI  15
ST JAMES       CLOUDY    23  19  86 NW14G22   29.79R WCI  11
GLENCOE        CLOUDY    26  22  85 N10G20    29.79R WCI  15
FARIBAULT      FAIR      25  21  86 CALM      29.75R
OWATONNA       MOCLDY    28  27  93 N9        29.73R WCI  20
WASECA         FAIR      27  23  86 N14       29.73F WCI  15
ALBERT LEA     CLOUDY    30  28  93 CALM      29.71S FOG
$$
MNZ078>079-086>088-094>096-190900-
   Southeast Minnesota

CITY           SKY/WX    TMP DP  RH WIND       PRES   REMARKS
ROCHESTER      FAIR      31  28  89 S8        29.71F WCI  23
RED WING       FAIR      32  27  80 N3        29.74R
STANTON        FAIR      27  23  86 N8        29.74R WCI  18
DODGE CENTER   FAIR      30  28  93 CALM      29.71R
WINONA         FAIR      36  28  75 CALM      29.73R
AUSTIN         FAIR      34  28  80 S3        29.70S
PRESTON        FAIR      35  29  79 S7        29.72S WCI  29
$$
ABBREVIATIONS USED IN REMARKS
   TC - TEMPERATURES IN CELSIUS
  WCI - WIND CHILL INDEX
   HX - HEAT INDEX
  VSB - VISIBILITY
$$




USA.gov is the U.S. government's official web portal to all federal, state and local government web resources and services.